Location: Binningen
(47.7924°N, 8.7261°E)
Time: 20:09:42
(UTC+00:00)

Resurs 01 Rocket - Pass Details

Date: 17 May 2021
Orbit: 633 x 645 km, 97.9° (Epoch: 21 June)

Event Time Altitude Azimuth Distance (km) Brightness Sun altitude
Exits shadow 20:44:55 - 198° (SSW) 2,436 4.3 -14.1°
Reaches altitude 10° 20:46:02 10° 205° (SSW) 2,034 3.9 -14.2°
Maximum altitude 20:49:53 29° 265° (W) 1,190 3.3 -14.6°
Drops below altitude 10° 20:53:46 10° 326° (NW) 2,043 5.6 -15.0°
Sets 20:56:14 0° 337° (NNW) 2,956 6.7 -15.2°
